EDT,Max TemperatureF,Mean TemperatureF,Min TemperatureF,Max Dew PointF,MeanDew PointF,Min DewpointF,Max Humidity, Mean Humidity, Min Humidity, Max Sea Level PressureIn, Mean Sea Level PressureIn, Min Sea Level PressureIn, Max VisibilityMiles, Mean VisibilityMiles, Min VisibilityMiles, Max Wind SpeedMPH, Mean Wind SpeedMPH, Max Gust SpeedMPH,PrecipitationIn, CloudCover, Events, WindDirDegrees
2011-10-1,64,58,50,42,37,30,68,50,31,30.09,30.00,29.91,10,10,10,15,10,24,0.00,0,,318
2011-10-2,66,54,43,39,35,29,86,49,25,30.12,30.07,30.03,10,10,10,16,8,24,0.00,0,,315
2011-10-3,73,60,48,38,32,20,66,39,14,30.18,30.15,30.10,10,10,10,15,8,23,0.00,0,,310
2011-10-4,79,64,50,51,45,41,86,55,33,30.27,30.21,30.17,10,10,10,7,2,,0.00,0,,333
2011-10-5,81,66,54,52,49,46,86,57,32,30.28,30.22,30.17,10,10,10,6,3,,0.00,0,,81
2011-10-6,77,66,55,53,51,48,87,61,36,30.32,30.27,30.22,10,10,10,13,5,18,0.00,0,,66
2011-10-7,75,65,55,52,50,45,86,61,34,30.40,30.34,30.31,10,10,8,12,7,21,0.00,0,,71
2011-10-8,75,64,54,53,49,46,75,59,43,30.44,30.38,30.32,10,10,10,15,9,22,0.00,0,,68
2011-10-9,71,66,60,55,52,46,70,63,55,30.34,30.27,30.20,10,10,10,17,12,26,0.00,2,,70
2011-10-10,66,63,60,61,58,55,100,84,68,30.19,30.11,30.01,10,8,1,20,14,26,0.29,8,Rain,63
2011-10-11,64,60,57,59,57,55,100,91,75,30.03,29.97,29.91,10,8,2,22,14,33,0.36,8,Rain,65
2011-10-12,71,64,57,63,59,55,96,85,68,29.90,29.84,29.78,10,10,9,8,4,,0.00,8,,118
2011-10-13,70,63,57,63,60,53,100,91,61,29.81,29.72,29.61,10,7,2,20,6,28,0.07,7,Rain,230
2011-10-14,73,64,55,56,49,40,93,63,30,29.94,29.83,29.71,10,10,10,15,10,28,0.00,0,,273
2011-10-15,73,64,55,46,42,36,69,48,25,30.12,30.03,29.95,10,10,10,18,9,26,0.00,0,,277
2011-10-16,81,65,50,51,43,40,74,49,25,30.16,30.10,30.04,10,10,10,9,4,,0.00,0,,276
2011-10-17,82,68,55,54,51,48,80,57,34,30.04,29.95,29.88,10,10,10,13,4,18,0.00,0,,260
2011-10-18,78,66,55,65,60,52,100,85,45,29.86,29.74,29.57,10,6,1,12,3,,0.36,5,Rain,126
2011-10-19,63,55,46,64,53,39,100,93,74,29.71,29.53,29.43,10,5,1,21,10,31,0.36,8,Rain,265
2011-10-20,51,47,43,41,39,36,87,76,59,30.05,29.84,29.71,10,10,9,20,15,33,0.00,7,Rain,269
2011-10-21,61,50,39,39,37,35,89,66,38,30.13,30.09,30.05,10,10,10,14,7,21,0.00,0,,278
2011-10-22,64,53,42,43,39,36,92,63,38,30.18,30.12,30.08,10,10,10,7,4,,0.00,0,,318
2011-10-23,66,54,43,49,43,40,89,66,40,30.16,30.10,30.06,10,10,9,6,1,,0.00,0,,167
2011-10-24,73,63,54,51,48,44,90,64,37,30.19,30.13,30.09,10,10,10,12,3,,0.00,2,Rain,287
2011-10-25,73,60,48,48,46,43,89,60,34,30.27,30.20,30.17,10,10,10,8,3,,0.00,0,,113
2011-10-26,73,60,46,50,46,43,97,60,34,30.16,30.06,29.98,10,10,9,13,4,21,0.00,0,,229
2011-10-27,73,62,51,58,53,48,96,71,48,29.98,29.92,29.86,10,10,6,15,4,22,0.00,3,,252
2011-10-28,62,54,45,57,50,43,100,82,63,30.02,29.96,29.91,10,8,3,15,8,21,0.24,6,Rain,72
2011-10-29,59,50,42,43,37,25,100,72,28,30.18,30.04,29.99,10,9,4,15,8,25,0.01,4,Rain,349
2011-10-30,57,46,35,37,31,24,97,59,28,30.32,30.25,30.19,10,10,7,8,2,,0.00,0,,111
2011-10-31,60,48,36,38,34,32,86,60,36,30.28,30.23,30.16,10,10,10,9,2,,0.00,0,Rain,11